| time (UTC) | temp F | wind direction | speed knots | gust knots | rain 1hr in | rain 24hr in | rain mn in | humidity % | barometer mb |
| 20260509032528 | 54 | 232 | 0.0 | 3.5 | 0.00 | 0.00 | 0.00 | 68 | 1008.5 |
| 20260509032027 | 54 | 232 | 0.9 | 3.5 | 0.00 | 0.00 | 0.00 | 67 | 1008.6 |
| 20260509031529 | 54 | 231 | 0.9 | 3.5 | 0.00 | 0.00 | 0.00 | 65 | 1008.5 |
| 20260509031028 | 54 | 244 | 0.9 | 3.5 | 0.00 | 0.00 | 0.00 | 63 | 1008.7 |
| 20260509030527 | 54 | 243 | 0.0 | 1.7 | 0.00 | 0.00 | 0.00 | 62 | 1008.7 |
| 20260509030027 | 54 | 243 | 0.9 | 1.7 | 0.00 | 0.00 | 0.00 | 62 | 1008.7 |
| 20260509025525 | 54 | 243 | 0.0 | 2.6 | 0.00 | 0.00 | 0.00 | 62 | 1008.6 |
| 20260509025025 | 54 | 243 | 0.0 | 2.6 | 0.00 | 0.00 | 0.00 | 62 | 1008.7 |
| 20260509024530 | 54 | 243 | 0.0 | 1.7 | 0.00 | 0.00 | 0.00 | 63 | 1008.8 |
| 20260509024026 | 54 | 243 | 0.0 | 4.3 | 0.00 | 0.00 | 0.00 | 63 | 1008.7 |
| 20260509023526 | 54 | 243 | 1.7 | 6.1 | 0.00 | 0.00 | 0.00 | 63 | 1008.7 |
| 20260509023031 | 54 | 248 | 2.6 | 6.1 | 0.00 | 0.00 | 0.00 | 65 | 1008.7 |
| 20260509022525 | 54 | 204 | 0.9 | 2.6 | 0.00 | 0.00 | 0.00 | 65 | 1008.6 |
| 20260509022025 | 55 | 204 | 0.0 | 1.7 | 0.00 | 0.00 | 0.00 | 65 | 1008.5 |
| 20260509021525 | 54 | 204 | 0.0 | 1.7 | 0.00 | 0.00 | 0.00 | 65 | 1008.5 |
| 20260509021025 | 55 | 204 | 0.9 | 1.7 | 0.00 | 0.00 | 0.00 | 66 | 1008.6 |
| 20260509020524 | 55 | 204 | 0.0 | 2.6 | 0.00 | 0.00 | 0.00 | 65 | 1008.4 |
| 20260509020026 | 55 | 204 | 0.0 | 2.6 | 0.00 | 0.00 | 0.00 | 66 | 1008.4 |
| 20260509015523 | 55 | 204 | 0.0 | 1.7 | 0.00 | 0.00 | 0.00 | 65 | 1008.5 |
| 20260509015024 | 55 | 204 | 0.9 | 1.7 | 0.00 | 0.00 | 0.00 | 65 | 1008.5 |
| 20260509014523 | 55 | 204 | 0.0 | 0.9 | 0.00 | 0.00 | 0.00 | 65 | 1008.4 |
| 20260509014023 | 56 | 204 | 0.0 | 0.9 | 0.00 | 0.00 | 0.00 | 65 | 1008.4 |
| 20260509013526 | 56 | 204 | 0.0 | 0.9 | 0.00 | 0.00 | 0.00 | 64 | 1008.2 |
| 20260509013023 | 56 | 204 | 0.0 | 0.9 | 0.00 | 0.00 | 0.00 | 63 | 1008.3 |
| 20260509012522 | 57 | 204 | 0.0 | 0.9 | 0.00 | 0.00 | 0.00 | 63 | 1008.2 |
| 20260509012023 | 57 | 204 | 0.0 | 0.9 | 0.00 | 0.00 | 0.00 | 62 | 1008.2 |
| 20260509011522 | 58 | 204 | 0.0 | 0.9 | 0.00 | 0.00 | 0.00 | 62 | 1008.1 |
| 20260509011021 | 58 | 204 | 0.0 | 1.7 | 0.00 | 0.00 | 0.00 | 61 | 1008.1 |
| 20260509010524 | 58 | 204 | 0.0 | 1.7 | 0.00 | 0.00 | 0.00 | 61 | 1008.2 |
| 20260509010026 | 59 | 204 | 0.0 | 1.7 | 0.00 | 0.00 | 0.00 | 61 | 1008.1 |
| 20260509005520 | 59 | 204 | 0.0 | 1.7 | 0.00 | 0.00 | 0.00 | 60 | 1008.0 |
| 20260509005021 | 59 | 204 | 0.0 | 1.7 | 0.00 | 0.00 | 0.00 | 59 | 1008.0 |
| 20260509004531 | 60 | 204 | 0.0 | 4.3 | 0.00 | 0.00 | 0.00 | 59 | 1008.0 |
| 20260509004021 | 60 | 204 | 0.0 | 4.3 | 0.00 | 0.00 | 0.00 | 58 | 1008.0 |
| 20260509003523 | 60 | 187 | 0.9 | 4.3 | 0.00 | 0.00 | 0.00 | 58 | 1007.8 |
| 20260509003021 | 60 | 191 | 1.7 | 4.3 | 0.00 | 0.00 | 0.00 | 58 | 1007.8 |
| 20260509002519 | 60 | 183 | 1.7 | 4.3 | 0.00 | 0.00 | 0.00 | 58 | 1007.7 |
| 20260509002019 | 60 | 171 | 0.9 | 7.0 | 0.00 | 0.00 | 0.00 | 58 | 1007.7 |
| 20260509001520 | 61 | 182 | 2.6 | 7.0 | 0.00 | 0.00 | 0.00 | 58 | 1007.6 |
| 20260509001021 | 61 | 169 | 1.7 | 7.0 | 0.00 | 0.00 | 0.00 | 58 | 1007.6 |
| 20260509000521 | 61 | 197 | 2.6 | 7.0 | 0.00 | 0.00 | 0.00 | 57 | 1007.6 |
| 20260509000020 | 61 | 178 | 2.6 | 7.0 | 0.00 | 0.00 | 0.00 | 57 | 1007.6 |
| 20260508235521 | 61 | 179 | 1.7 | 7.0 | 0.00 | 0.00 | 0.00 | 57 | 1007.6 |
| 20260508235019 | 61 | 174 | 2.6 | 7.0 | 0.00 | 0.00 | 0.00 | 57 | 1007.6 |
| 20260508234518 | 62 | 182 | 2.6 | 8.7 | 0.00 | 0.00 | 0.00 | 56 | 1007.6 |
| 20260508234018 | 62 | 190 | 1.7 | 8.7 | 0.00 | 0.00 | 0.00 | 56 | 1007.6 |
| 20260508233518 | 62 | 163 | 3.5 | 7.0 | 0.00 | 0.00 | 0.00 | 56 | 1007.6 |
| 20260508233018 | 62 | 194 | 3.5 | 7.0 | 0.00 | 0.00 | 0.00 | 56 | 1007.6 |
| 20260508232517 | 62 | 126 | 0.9 | 7.8 | 0.00 | 0.00 | 0.00 | 55 | 1007.6 |
| 20260508232017 | 63 | 140 | 2.6 | 8.7 | 0.00 | 0.00 | 0.00 | 55 | 1007.6 |
| 20260508231517 | 63 | 159 | 2.6 | 8.7 | 0.00 | 0.00 | 0.00 | 55 | 1007.6 |
| 20260508231017 | 63 | 160 | 3.5 | 8.7 | 0.00 | 0.00 | 0.00 | 54 | 1007.7 |
| 20260508230516 | 63 | 205 | 3.5 | 8.7 | 0.00 | 0.00 | 0.00 | 53 | 1007.7 |
| 20260508230017 | 64 | 178 | 1.7 | 5.2 | 0.00 | 0.00 | 0.00 | 53 | 1007.7 |
| 20260508225515 | 64 | 208 | 1.7 | 3.5 | 0.00 | 0.00 | 0.00 | 51 | 1007.8 |
| 20260508225015 | 64 | 178 | 1.7 | 4.3 | 0.00 | 0.00 | 0.00 | 47 | 1007.9 |
| 20260508224514 | 64 | 171 | 1.7 | 3.5 | 0.00 | 0.00 | 0.00 | 52 | 1007.9 |
| 20260508224019 | 64 | 188 | 0.9 | 4.3 | 0.00 | 0.00 | 0.00 | 49 | 1007.9 |
| 20260508223514 | 65 | 193 | 0.9 | 6.1 | 0.00 | 0.00 | 0.00 | 48 | 1008.0 |
| 20260508223014 | 65 | 175 | 2.6 | 6.1 | 0.00 | 0.00 | 0.00 | 40 | 1008.0 |
| 20260508222515 | 65 | 163 | 1.7 | 3.5 | 0.00 | 0.00 | 0.00 | 44 | 1008.2 |
| 20260508222013 | 65 | 101 | 0.9 | 6.1 | 0.00 | 0.00 | 0.00 | 47 | 1008.2 |
| 20260508221513 | 65 | 152 | 1.7 | 6.1 | 0.00 | 0.00 | 0.00 | 47 | 1008.0 |
| 20260508221013 | 65 | 119 | 0.9 | 6.1 | 0.00 | 0.00 | 0.00 | 46 | 1008.1 |
| 20260508220513 | 65 | 82 | 1.7 | 6.1 | 0.00 | 0.00 | 0.00 | 49 | 1008.0 |
| 20260508220012 | 65 | 83 | 1.7 | 7.0 | 0.00 | 0.00 | 0.00 | 48 | 1008.1 |
| 20260508215512 | 65 | 99 | 2.6 | 7.8 | 0.00 | 0.00 | 0.00 | 49 | 1008.2 |
| 20260508215012 | 65 | 94 | 2.6 | 7.8 | 0.00 | 0.00 | 0.00 | 47 | 1008.1 |
| 20260508214511 | 66 | 65 | 1.7 | 8.7 | 0.00 | 0.00 | 0.00 | 49 | 1008.1 |
| 20260508214013 | 66 | 74 | 4.3 | 8.7 | 0.00 | 0.00 | 0.00 | 47 | 1008.3 |
| 20260508213510 | 66 | 72 | 1.7 | 8.7 | 0.00 | 0.00 | 0.00 | 47 | 1008.3 |
| 20260508213016 | 66 | 106 | 2.6 | 8.7 | 0.00 | 0.00 | 0.00 | 47 | 1008.4 |
| 20260508212511 | 66 | 95 | 1.7 | 9.6 | 0.00 | 0.00 | 0.00 | 44 | 1008.3 |
| 20260508212014 | 66 | 95 | 4.3 | 9.6 | 0.00 | 0.00 | 0.00 | 44 | 1008.4 |
| 20260508211509 | 66 | 88 | 2.6 | 7.8 | 0.00 | 0.00 | 0.00 | 44 | 1008.4 |
| 20260508211012 | 66 | 166 | 1.7 | 7.8 | 0.00 | 0.00 | 0.00 | 44 | 1008.6 |
| 20260508210509 | 66 | 101 | 3.5 | 7.8 | 0.00 | 0.00 | 0.00 | 45 | 1008.5 |
| 20260508210010 | 67 | 94 | 2.6 | 7.8 | 0.00 | 0.00 | 0.00 | 44 | 1008.5 |
| 20260508205507 | 66 | 144 | 1.7 | 7.8 | 0.00 | 0.00 | 0.00 | 43 | 1008.5 |
| 20260508205010 | 66 | 209 | 1.7 | 5.2 | 0.00 | 0.00 | 0.00 | 35 | 1008.7 |
| 20260508204507 | 66 | 234 | 1.7 | 5.2 | 0.00 | 0.00 | 0.00 | 36 | 1008.7 |
| 20260508204005 | 66 | 223 | 1.7 | 4.3 | 0.00 | 0.00 | 0.00 | 35 | 1008.9 |
| 20260508203505 | 66 | 245 | 1.7 | 5.2 | 0.00 | 0.00 | 0.00 | 35 | 1008.8 |
| 20260508203013 | 66 | 213 | 0.9 | 5.2 | 0.00 | 0.00 | 0.00 | 34 | 1009.0 |
| 20260508202505 | 66 | 276 | 1.7 | 7.0 | 0.00 | 0.00 | 0.00 | 35 | 1008.9 |
| 20260508202004 | 66 | 225 | 1.7 | 7.0 | 0.00 | 0.00 | 0.00 | 33 | 1009.1 |
| 20260508201506 | 66 | 221 | 2.6 | 5.2 | 0.00 | 0.00 | 0.00 | 31 | 1009.2 |
| 20260508201002 | 66 | 193 | 3.5 | 9.6 | 0.00 | 0.00 | 0.00 | 31 | 1009.4 |
| 20260508200502 | 66 | 277 | 4.3 | 8.7 | 0.00 | 0.00 | 0.00 | 33 | 1009.4 |
| 20260508200002 | 66 | 256 | 3.5 | 8.7 | 0.00 | 0.00 | 0.00 | 32 | 1009.5 |
| 20260508195501 | 66 | 290 | 1.7 | 8.7 | 0.00 | 0.00 | 0.00 | 34 | 1009.6 |
| 20260508195001 | 67 | 211 | 1.7 | 8.7 | 0.00 | 0.00 | 0.00 | 30 | 1009.7 |
| 20260508194600 | 67 | 188 | 4.3 | 10.4 | 0.00 | 0.00 | 0.00 | 32 | 1009.8 |
| 20260508194059 | 67 | 182 | 2.6 | 7.0 | 0.00 | 0.00 | 0.00 | 33 | 1009.8 |
| 20260508193558 | 66 | 270 | 0.9 | 7.8 | 0.00 | 0.00 | 0.00 | 33 | 1010.0 |
| 20260508193113 | 66 | 254 | 1.7 | 9.6 | 0.00 | 0.00 | 0.00 | 32 | 1010.2 |
| 20260508192557 | 66 | 289 | 3.5 | 9.6 | 0.00 | 0.00 | 0.00 | 36 | 1010.2 |
| 20260508192059 | 66 | 240 | 3.5 | 8.7 | 0.00 | 0.00 | 0.00 | 32 | 1010.1 |
| 20260508191558 | 66 | 259 | 1.7 | 8.7 | 0.00 | 0.00 | 0.00 | 35 | 1010.2 |
| 20260508191059 | 66 | 223 | 3.5 | 9.6 | 0.00 | 0.00 | 0.00 | 33 | 1010.3 |
| 20260508190555 | 66 | 222 | 4.3 | 9.6 | 0.00 | 0.00 | 0.00 | 30 | 1010.4 |
| 20260508190107 | 66 | 227 | 3.5 | 7.8 | 0.00 | 0.00 | 0.00 | 33 | 1010.4 |
| 20260508185555 | 66 | 167 | 2.6 | 7.8 | 0.00 | 0.00 | 0.00 | 33 | 1010.4 |
| 20260508185053 | 65 | 86 | 2.6 | 7.0 | 0.00 | 0.00 | 0.00 | 34 | 1010.5 |
| 20260508184555 | 65 | 223 | 2.6 | 7.0 | 0.00 | 0.00 | 0.00 | 35 | 1010.6 |
| 20260508184049 | 64 | 228 | 1.7 | 7.0 | 0.00 | 0.00 | 0.00 | 33 | 1010.6 |
| 20260508183549 | 64 | 263 | 2.6 | 6.1 | 0.00 | 0.00 | 0.00 | 33 | 1010.6 |
| 20260508183109 | 64 | 298 | 0.9 | 11.3 | 0.00 | 0.00 | 0.00 | 37 | 1010.7 |
| 20260508182548 | 64 | 338 | 3.5 | 11.3 | 0.00 | 0.00 | 0.00 | 37 | 1010.8 |
| 20260508182047 | 64 | 238 | 2.6 | 7.0 | 0.00 | 0.00 | 0.00 | 35 | 1010.9 |
| 20260508181550 | 64 | 186 | 0.9 | 9.6 | 0.00 | 0.00 | 0.00 | 37 | 1010.8 |
| 20260508181049 | 64 | 297 | 5.2 | 9.6 | 0.00 | 0.00 | 0.00 | 34 | 1011.0 |
| 20260508180549 | 64 | 275 | 3.5 | 7.0 | 0.00 | 0.00 | 0.00 | 36 | 1011.0 |
| 20260508180058 | 64 | 284 | 2.6 | 8.7 | 0.00 | 0.00 | 0.00 | 34 | 1011.1 |
| 20260508175545 | 64 | 296 | 4.3 | 7.8 | 0.00 | 0.00 | 0.00 | 36 | 1011.2 |
| 20260508175044 | 64 | 268 | 2.6 | 7.8 | 0.00 | 0.00 | 0.00 | 37 | 1011.3 |
| 20260508174559 | 64 | 182 | 3.5 | 7.8 | 0.00 | 0.00 | 0.00 | 35 | 1011.4 |
| 20260508174041 | 64 | 196 | 1.7 | 8.7 | 0.00 | 0.00 | 0.00 | 32 | 1011.7 |
| 20260508173540 | 63 | 177 | 4.3 | 10.4 | 0.00 | 0.00 | 0.00 | 35 | 1011.8 |
| 20260508173038 | 63 | 254 | 5.2 | 10.4 | 0.00 | 0.00 | 0.00 | 34 | 1011.8 |
| 20260508172537 | 63 | 231 | 2.6 | 9.6 | 0.00 | 0.00 | 0.00 | 35 | 1011.9 |
| 20260508172039 | 62 | 117 | 0.9 | 7.8 | 0.00 | 0.00 | 0.00 | 36 | 1011.9 |
| 20260508171534 | 62 | 200 | 2.6 | 9.6 | 0.00 | 0.00 | 0.00 | 35 | 1012.1 |
| 20260508171034 | 62 | 212 | 3.5 | 9.6 | 0.00 | 0.00 | 0.00 | 36 | 1012.0 |
| 20260508170534 | 62 | 293 | 1.7 | 10.4 | 0.00 | 0.00 | 0.00 | 37 | 1012.0 |
| 20260508170036 | 62 | 238 | 3.5 | 10.4 | 0.00 | 0.00 | 0.00 | 36 | 1012.1 |
| 20260508165531 | 61 | 244 | 1.7 | 8.7 | 0.00 | 0.00 | 0.00 | 37 | 1012.2 |
| 20260508165031 | 61 | 256 | 3.5 | 8.7 | 0.00 | 0.00 | 0.00 | 38 | 1012.4 |
| 20260508164537 | 61 | 309 | 2.6 | 8.7 | 0.00 | 0.00 | 0.00 | 38 | 1012.4 |
| 20260508164028 | 61 | 323 | 1.7 | 10.4 | 0.00 | 0.00 | 0.00 | 42 | 1012.4 |
| 20260508163527 | 60 | 285 | 4.3 | 10.4 | 0.00 | 0.00 | 0.00 | 37 | 1012.5 |
| 20260508163030 | 60 | 261 | 5.2 | 9.6 | 0.00 | 0.00 | 0.00 | 38 | 1012.7 |
| 20260508162524 | 60 | 246 | 4.3 | 11.3 | 0.00 | 0.00 | 0.00 | 36 | 1012.7 |
| 20260508162023 | 60 | 268 | 4.3 | 11.3 | 0.00 | 0.00 | 0.00 | 37 | 1012.6 |
| 20260508161521 | 60 | 329 | 6.1 | 11.3 | 0.00 | 0.00 | 0.00 | 37 | 1012.6 |
| 20260508161020 | 59 | 235 | 2.6 | 6.1 | 0.00 | 0.00 | 0.00 | 39 | 1012.5 |
| 20260508160519 | 59 | 291 | 1.7 | 7.8 | 0.00 | 0.00 | 0.00 | 40 | 1012.6 |
| 20260508160019 | 58 | 206 | 3.5 | 7.8 | 0.00 | 0.00 | 0.00 | 40 | 1012.6 |
| 20260508155516 | 58 | 299 | 2.6 | 7.8 | 0.00 | 0.00 | 0.00 | 40 | 1012.7 |
| 20260508155014 | 57 | 313 | 2.6 | 7.0 | 0.00 | 0.00 | 0.00 | 41 | 1012.8 |
| 20260508154513 | 56 | 275 | 1.7 | 8.7 | 0.00 | 0.00 | 0.00 | 40 | 1012.8 |
| 20260508154011 | 56 | 323 | 1.7 | 7.0 | 0.00 | 0.00 | 0.00 | 46 | 1012.8 |
| 20260508153512 | 55 | 229 | 0.9 | 4.3 | 0.00 | 0.00 | 0.00 | 45 | 1012.8 |
| 20260508153019 | 55 | 273 | 0.9 | 6.1 | 0.00 | 0.00 | 0.00 | 50 | 1012.8 |
| 20260508152511 | 55 | 291 | 2.6 | 6.1 | 0.00 | 0.00 | 0.00 | 50 | 1012.8 |
| 20260508152010 | 55 | 209 | 1.7 | 6.1 | 0.00 | 0.00 | 0.00 | 53 | 1012.9 |
| 20260508151506 | 54 | 186 | 1.7 | 6.1 | 0.00 | 0.00 | 0.00 | 54 | 1013.0 |
| 20260508151005 | 54 | 214 | 1.7 | 4.3 | 0.00 | 0.00 | 0.00 | 55 | 1013.1 |
| 20260508150504 | 53 | 192 | 0.0 | 4.3 | 0.00 | 0.00 | 0.00 | 55 | 1013.1 |
| 20260508150003 | 53 | 163 | 2.6 | 4.3 | 0.00 | 0.00 | 0.00 | 55 | 1013.1 |
| 20260508145503 | 53 | 90 | 0.9 | 6.1 | 0.00 | 0.00 | 0.00 | 54 | 1013.1 |
| 20260508145000 | 53 | 299 | 1.7 | 6.1 | 0.00 | 0.00 | 0.00 | 56 | 1013.1 |
| 20260508144614 | 53 | 141 | 0.0 | 3.5 | 0.00 | 0.00 | 0.00 | 59 | 1013.2 |
| 20260508144101 | 52 | 149 | 0.0 | 1.7 | 0.00 | 0.00 | 0.00 | 59 | 1013.3 |
| 20260508143558 | 52 | 149 | 0.0 | 6.1 | 0.00 | 0.00 | 0.00 | 59 | 1013.3 |
| 20260508143100 | 52 | 217 | 0.9 | 3.5 | 0.00 | 0.00 | 0.00 | 57 | 1013.3 |
| 20260508142556 | 51 | 207 | 0.0 | 2.6 | 0.00 | 0.00 | 0.00 | 59 | 1013.4 |
| 20260508142055 | 51 | 198 | 0.9 | 6.1 | 0.00 | 0.00 | 0.00 | 57 | 1013.4 |
| 20260508141604 | 51 | 227 | 2.6 | 6.1 | 0.00 | 0.00 | 0.00 | 58 | 1013.5 |
| 20260508141053 | 50 | 184 | 1.7 | 4.3 | 0.00 | 0.00 | 0.00 | 59 | 1013.5 |
| 20260508140552 | 50 | 242 | 1.7 | 4.3 | 0.00 | 0.00 | 0.00 | 59 | 1013.6 |
| 20260508140052 | 50 | 159 | 0.9 | 2.6 | 0.00 | 0.00 | 0.00 | 61 | 1013.6 |
| 20260508135552 | 50 | 159 | 0.0 | 4.3 | 0.00 | 0.00 | 0.00 | 63 | 1013.7 |
| 20260508135052 | 50 | 159 | 0.9 | 4.3 | 0.00 | 0.00 | 0.00 | 63 | 1013.7 |
| 20260508134552 | 50 | 159 | 1.7 | 4.3 | 0.00 | 0.00 | 0.00 | 63 | 1013.6 |
| 20260508134051 | 49 | 150 | 0.0 | 4.3 | 0.00 | 0.00 | 0.00 | 65 | 1013.7 |
| 20260508133548 | 49 | 150 | 0.9 | 4.3 | 0.00 | 0.00 | 0.00 | 66 | 1013.7 |
| 20260508133048 | 49 | 157 | 0.0 | 6.1 | 0.00 | 0.00 | 0.00 | 64 | 1013.7 |
| 20260508132547 | 49 | 156 | 2.6 | 6.1 | 0.00 | 0.00 | 0.00 | 65 | 1013.7 |
| 20260508132046 | 48 | 148 | 0.9 | 4.3 | 0.00 | 0.00 | 0.00 | 66 | 1013.8 |
| 20260508131557 | 48 | 146 | 0.9 | 3.5 | 0.00 | 0.00 | 0.00 | 67 | 1013.7 |
| 20260508131044 | 48 | 150 | 1.7 | 4.3 | 0.00 | 0.00 | 0.00 | 68 | 1013.8 |
| 20260508130545 | 47 | 161 | 0.9 | 4.3 | 0.00 | 0.00 | 0.00 | 67 | 1013.8 |
| 20260508130042 | 47 | 154 | 0.9 | 2.6 | 0.00 | 0.00 | 0.00 | 69 | 1013.8 |
| 20260508125542 | 47 | 159 | 0.9 | 5.2 | 0.00 | 0.00 | 0.00 | 68 | 1013.7 |
| 20260508125042 | 46 | 161 | 0.9 | 5.2 | 0.00 | 0.00 | 0.00 | 68 | 1013.8 |
| 20260508124541 | 46 | 161 | 1.7 | 4.3 | 0.00 | 0.00 | 0.00 | 69 | 1013.7 |
| 20260508124040 | 46 | 140 | 0.9 | 2.6 | 0.00 | 0.00 | 0.00 | 70 | 1013.6 |
| 20260508123540 | 45 | 240 | 0.9 | 2.6 | 0.00 | 0.00 | 0.00 | 70 | 1013.4 |
| 20260508123040 | 45 | 240 | 0.0 | 1.7 | 0.00 | 0.00 | 0.00 | 72 | 1013.5 |
| 20260508122540 | 44 | 240 | 0.0 | 2.6 | 0.00 | 0.00 | 0.00 | 73 | 1013.6 |
| 20260508122043 | 44 | 240 | 0.9 | 2.6 | 0.00 | 0.00 | 0.00 | 74 | 1013.5 |
| 20260508121539 | 43 | 240 | 0.0 | 2.6 | 0.00 | 0.00 | 0.00 | 77 | 1013.4 |
| 20260508121038 | 43 | 240 | 0.9 | 2.6 | 0.00 | 0.00 | 0.00 | 78 | 1013.3 |
| 20260508120538 | 42 | 240 | 0.0 | 2.6 | 0.00 | 0.00 | 0.00 | 81 | 1013.3 |
| 20260508120052 | 41 | 240 | 0.9 | 2.6 | 0.00 | 0.00 | 0.00 | 82 | 1013.3 |
| 20260508115538 | 40 | 240 | 0.0 | 2.6 | 0.00 | 0.00 | 0.00 | 84 | 1013.2 |
| 20260508115036 | 39 | 240 | 0.0 | 0.0 | 0.00 | 0.00 | 0.00 | 86 | 1013.1 |
| 20260508114550 | 39 | 240 | 0.0 | 0.0 | 0.00 | 0.00 | 0.00 | 85 | 1013.0 |
| 20260508114036 | 38 | 240 | 0.0 | 0.9 | 0.00 | 0.00 | 0.00 | 86 | 1013.0 |
| 20260508113534 | 38 | 240 | 0.0 | 0.9 | 0.00 | 0.00 | 0.00 | 86 | 1013.0 |
| 20260508113034 | 38 | 240 | 0.0 | 0.9 | 0.00 | 0.00 | 0.00 | 86 | 1012.9 |
| 20260508112534 | 38 | 240 | 0.0 | 0.0 | 0.00 | 0.00 | 0.00 | 86 | 1012.9 |
| 20260508112031 | 37 | 240 | 0.0 | 0.0 | 0.00 | 0.00 | 0.00 | 86 | 1012.9 |
| 20260508111531 | 37 | 240 | 0.0 | 0.0 | 0.00 | 0.00 | 0.00 | 86 | 1012.8 |
| 20260508111033 | 37 | 240 | 0.0 | 0.0 | 0.00 | 0.00 | 0.00 | 85 | 1012.9 |
| 20260508110531 | 37 | 240 | 0.0 | 0.0 | 0.00 | 0.00 | 0.00 | 85 | 1012.7 |
| 20260508110033 | 37 | 240 | 0.0 | 0.9 | 0.00 | 0.00 | 0.00 | 85 | 1012.8 |
| 20260508105530 | 37 | 239 | 0.0 | 0.9 | 0.00 | 0.00 | 0.00 | 84 | 1012.8 |
| 20260508105031 | 37 | 360 | 0.0 | 0.0 | 0.00 | 0.00 | 0.00 | 84 | 1012.9 |
| 20260508104533 | 37 | 360 | 0.0 | 0.0 | 0.00 | 0.00 | 0.00 | 84 | 1012.8 |
| 20260508104031 | 37 | 360 | 0.0 | 0.0 | 0.00 | 0.00 | 0.00 | 83 | 1012.9 |
| 20260508103528 | 37 | 360 | 0.0 | 0.9 | 0.00 | 0.00 | 0.00 | 83 | 1012.9 |
| 20260508103034 | 37 | 360 | 0.0 | 0.9 | 0.00 | 0.00 | 0.00 | 82 | 1012.8 |
| 20260508102531 | 37 | 360 | 0.0 | 0.0 | 0.00 | 0.00 | 0.00 | 82 | 1012.8 |
| 20260508102025 | 38 | 360 | 0.0 | 0.0 | 0.00 | 0.00 | 0.00 | 81 | 1012.7 |
| 20260508101526 | 38 | 360 | 0.0 | 0.0 | 0.00 | 0.00 | 0.00 | 81 | 1012.7 |
| 20260508101029 | 38 | 360 | 0.0 | 0.0 | 0.00 | 0.00 | 0.00 | 81 | 1012.7 |
| 20260508100524 | 38 | 360 | 0.0 | 0.0 | 0.00 | 0.00 | 0.00 | 81 | 1012.8 |
| 20260508100024 | 38 | 360 | 0.0 | 0.0 | 0.00 | 0.00 | 0.00 | 80 | 1012.7 |
| 20260508095523 | 38 | 360 | 0.0 | 0.0 | 0.00 | 0.00 | 0.00 | 80 | 1012.8 |
| 20260508095023 | 39 | 237 | 0.0 | 0.0 | 0.00 | 0.00 | 0.00 | 80 | 1012.8 |
| 20260508094524 | 39 | 360 | 0.0 | 0.0 | 0.00 | 0.00 | 0.00 | 79 | 1012.8 |
| 20260508094021 | 39 | 360 | 0.0 | 0.0 | 0.00 | 0.00 | 0.00 | 79 | 1012.8 |
| 20260508093520 | 39 | 360 | 0.0 | 0.0 | 0.00 | 0.00 | 0.00 | 79 | 1012.9 |
| 20260508093033 | 39 | 360 | 0.0 | 0.0 | 0.00 | 0.00 | 0.00 | 78 | 1012.9 |
| 20260508092518 | 40 | 360 | 0.0 | 0.0 | 0.00 | 0.00 | 0.00 | 78 | 1012.9 |
| 20260508092019 | 40 | 360 | 0.0 | 0.0 | 0.00 | 0.00 | 0.00 | 77 | 1013.0 |
| 20260508091520 | 41 | 360 | 0.0 | 0.9 | 0.00 | 0.00 | 0.00 | 77 | 1012.9 |
| 20260508091017 | 41 | 240 | 0.0 | 0.9 | 0.00 | 0.00 | 0.00 | 76 | 1012.9 |
| 20260508090514 | 41 | 240 | 0.0 | 0.9 | 0.00 | 0.00 | 0.00 | 76 | 1013.0 |
| 20260508090013 | 41 | 240 | 0.0 | 0.9 | 0.00 | 0.00 | 0.00 | 75 | 1013.0 |
| 20260508085515 | 42 | 240 | 0.0 | 2.6 | 0.00 | 0.00 | 0.00 | 75 | 1013.0 |
| 20260508085011 | 42 | 240 | 0.0 | 0.9 | 0.00 | 0.00 | 0.00 | 74 | 1013.0 |
| 20260508084511 | 42 | 240 | 0.0 | 1.7 | 0.00 | 0.00 | 0.00 | 74 | 1013.0 |
| 20260508084011 | 42 | 240 | 0.0 | 1.7 | 0.00 | 0.00 | 0.00 | 74 | 1013.0 |
| 20260508083510 | 42 | 240 | 0.0 | 1.7 | 0.00 | 0.00 | 0.00 | 74 | 1012.9 |
| 20260508083010 | 42 | 240 | 0.0 | 0.0 | 0.00 | 0.00 | 0.00 | 74 | 1013.1 |
| 20260508082512 | 43 | 240 | 0.0 | 0.9 | 0.00 | 0.00 | 0.00 | 75 | 1013.2 |
| 20260508082013 | 43 | 240 | 0.0 | 0.9 | 0.00 | 0.00 | 0.00 | 73 | 1013.1 |
| 20260508081510 | 43 | 240 | 0.0 | 1.7 | 0.00 | 0.00 | 0.00 | 73 | 1013.0 |
| 20260508081010 | 43 | 240 | 0.0 | 1.7 | 0.00 | 0.00 | 0.00 | 74 | 1013.2 |
| 20260508080507 | 43 | 240 | 0.0 | 0.9 | 0.00 | 0.00 | 0.00 | 72 | 1013.0 |
| 20260508080007 | 43 | 240 | 0.0 | 0.9 | 0.00 | 0.00 | 0.00 | 71 | 1012.9 |
| 20260508075507 | 43 | 240 | 0.0 | 0.9 | 0.00 | 0.00 | 0.00 | 71 | 1012.9 |
| 20260508075006 | 43 | 240 | 0.0 | 0.0 | 0.00 | 0.00 | 0.00 | 70 | 1012.9 |
| 20260508074504 | 44 | 240 | 0.0 | 0.0 | 0.00 | 0.00 | 0.00 | 70 | 1012.8 |
| 20260508074004 | 44 | 240 | 0.0 | 1.7 | 0.00 | 0.00 | 0.00 | 70 | 1012.8 |
| 20260508073505 | 44 | 240 | 0.0 | 1.7 | 0.00 | 0.00 | 0.00 | 69 | 1012.8 |
| 20260508073004 | 44 | 240 | 0.0 | 0.9 | 0.00 | 0.00 | 0.00 | 69 | 1012.9 |
| 20260508072505 | 44 | 238 | 0.0 | 2.6 | 0.00 | 0.00 | 0.00 | 70 | 1012.8 |
| 20260508072003 | 44 | 239 | 0.0 | 2.6 | 0.00 | 0.00 | 0.00 | 70 | 1012.8 |
| 20260508071505 | 44 | 238 | 0.0 | 1.7 | 0.00 | 0.00 | 0.00 | 70 | 1012.9 |
| 20260508071002 | 44 | 360 | 0.0 | 1.7 | 0.00 | 0.00 | 0.00 | 70 | 1013.1 |
| 20260508070501 | 44 | 360 | 0.0 | 0.9 | 0.00 | 0.00 | 0.00 | 69 | 1013.1 |
| 20260508070101 | 44 | 360 | 0.0 | 0.9 | 0.00 | 0.00 | 0.00 | 69 | 1013.2 |
| 20260508065600 | 45 | 240 | 0.0 | 0.0 | 0.00 | 0.00 | 0.00 | 70 | 1013.0 |
| 20260508065059 | 45 | 240 | 0.0 | 0.9 | 0.00 | 0.00 | 0.00 | 70 | 1013.0 |
| 20260508064558 | 45 | 240 | 0.0 | 0.9 | 0.00 | 0.00 | 0.00 | 69 | 1013.1 |
| 20260508064058 | 45 | 240 | 0.0 | 0.9 | 0.00 | 0.00 | 0.00 | 70 | 1013.1 |
| 20260508063558 | 45 | 240 | 0.0 | 1.7 | 0.00 | 0.00 | 0.00 | 70 | 1013.2 |
| 20260508063107 | 45 | 240 | 0.0 | 1.7 | 0.00 | 0.00 | 0.00 | 70 | 1013.2 |
| 20260508062600 | 45 | 240 | 0.0 | 3.5 | 0.00 | 0.00 | 0.00 | 71 | 1013.2 |
| 20260508062057 | 45 | 240 | 0.0 | 3.5 | 0.00 | 0.00 | 0.00 | 72 | 1013.2 |
| 20260508061557 | 45 | 240 | 0.0 | 3.5 | 0.00 | 0.00 | 0.00 | 74 | 1013.1 |
| 20260508061056 | 45 | 240 | 0.0 | 0.0 | 0.00 | 0.00 | 0.00 | 78 | 1013.4 |
| 20260508060555 | 45 | 240 | 0.0 | 0.9 | 0.00 | 0.00 | 0.00 | 77 | 1013.2 |
| 20260508060055 | 45 | 240 | 0.0 | 0.9 | 0.00 | 0.00 | 0.00 | 76 | 1013.0 |
| 20260508055557 | 45 | 240 | 0.0 | 0.0 | 0.00 | 0.00 | 0.00 | 76 | 1013.2 |
| 20260508055053 | 45 | 240 | 0.0 | 0.0 | 0.00 | 0.00 | 0.00 | 76 | 1013.2 |
| 20260508054553 | 45 | 240 | 0.0 | 0.0 | 0.00 | 0.00 | 0.00 | 76 | 1013.2 |
| 20260508054052 | 45 | 240 | 0.0 | 0.0 | 0.00 | 0.00 | 0.00 | 75 | 1013.4 |
| 20260508053552 | 45 | 240 | 0.0 | 0.0 | 0.00 | 0.00 | 0.00 | 74 | 1013.4 |
| 20260508053103 | 46 | 240 | 0.0 | 0.0 | 0.00 | 0.00 | 0.00 | 74 | 1013.2 |
| 20260508052551 | 46 | 240 | 0.0 | 0.0 | 0.00 | 0.00 | 0.00 | 73 | 1013.2 |
| 20260508052049 | 46 | 240 | 0.0 | 0.0 | 0.00 | 0.00 | 0.00 | 73 | 1013.4 |
| 20260508051549 | 46 | 240 | 0.0 | 1.7 | 0.00 | 0.00 | 0.00 | 72 | 1013.4 |
| 20260508051049 | 46 | 360 | 0.0 | 1.7 | 0.00 | 0.00 | 0.00 | 71 | 1013.3 |
| 20260508050547 | 46 | 360 | 0.0 | 3.5 | 0.00 | 0.00 | 0.00 | 71 | 1013.4 |
| 20260508050048 | 47 | 360 | 0.9 | 4.3 | 0.00 | 0.00 | 0.00 | 70 | 1013.4 |
| 20260508045547 | 47 | 360 | 1.7 | 5.2 | 0.00 | 0.00 | 0.00 | 70 | 1013.6 |
| 20260508045046 | 47 | 360 | 1.7 | 5.2 | 0.00 | 0.00 | 0.00 | 69 | 1013.6 |
| 20260508044546 | 47 | 360 | 1.7 | 3.5 | 0.00 | 0.00 | 0.00 | 68 | 1013.5 |
| 20260508044044 | 47 | 360 | 1.7 | 3.5 | 0.00 | 0.00 | 0.00 | 68 | 1013.3 |
| 20260508043544 | 47 | 360 | 0.9 | 3.5 | 0.00 | 0.00 | 0.00 | 67 | 1013.5 |
| 20260508043056 | 47 | 360 | 0.9 | 4.3 | 0.00 | 0.00 | 0.00 | 66 | 1013.5 |
| 20260508042544 | 47 | 360 | 0.9 | 4.3 | 0.00 | 0.00 | 0.00 | 65 | 1013.5 |
| 20260508042043 | 47 | 360 | 0.0 | 3.5 | 0.00 | 0.00 | 0.00 | 66 | 1013.5 |
| 20260508041549 | 47 | 360 | 1.7 | 3.5 | 0.00 | 0.00 | 0.00 | 65 | 1013.4 |
| 20260508041042 | 47 | 360 | 0.0 | 1.7 | 0.00 | 0.00 | 0.00 | 66 | 1013.5 |
| 20260508040541 | 47 | 360 | 0.0 | 1.7 | 0.00 | 0.00 | 0.00 | 61 | 1013.3 |
| 20260508040040 | 47 | 360 | 0.0 | 1.7 | 0.00 | 0.00 | 0.00 | 60 | 1013.4 |
| 20260508035539 | 47 | 252 | 0.0 | 0.9 | 0.00 | 0.00 | 0.00 | 62 | 1013.3 |
| 20260508035039 | 47 | 251 | 0.0 | 1.7 | 0.00 | 0.00 | 0.00 | 63 | 1013.4 |
| 20260508034539 | 48 | 360 | 0.0 | 1.7 | 0.00 | 0.00 | 0.00 | 59 | 1013.2 |
| 20260508034038 | 48 | 360 | 0.9 | 1.7 | 0.00 | 0.00 | 0.00 | 59 | 1013.0 |
| 20260508033538 | 48 | 360 | 0.0 | 0.0 | 0.00 | 0.00 | 0.00 | 58 | 1013.1 |
| 20260508033039 | 48 | 360 | 0.0 | 0.0 | 0.00 | 0.00 | 0.00 | 58 | 1013.2 |